STARLINK-5806 (56007 NORAD) Tracking and Keplerian Element Data

This shows tracking and keplerian element data for the satellite.

Feedback or suggestion? Click here.




ElementValue
Catalog56007
NameSTARLINK-5806
Epoch Orbit712
Epoch Day127.00001157
Epoch Year2023
RAAN297.5154
Inclination43.0007
Eccentricity0.0001496
Argument of Perigee270.1428
Mean Anonmoly352.6559
Mean Motion15.37835194
Decay Rate-0.00922438
L11 56007U 23042X 23127.00001157 -.00922438 00000+0 -26464-1 0 9990
L22 56007 43.0007 297.5154 0001496 270.1428 352.6559 15.37835194 7122



Live tracking and technical data element details for STARLINK-5806 (NORAD 56007). STARLINK-5806 can be tracked NOW for your location showing map with azimuth and elevation plus other details from your city location.







IsCatalogInMostPopularTable: catalog: 56007, numindb: 2
Update: records affected: 1



GetName: 56007 STARLINK-5806

Hit Count: updated at: Sat, 03 Jun 2023 18:34:34 GMT